DECAYED

STARLINK-30406, 57881 (Decayed)

Orbit data source: Space-Track

STARLINK-30406, 57881 was a payload satellite owned by SpaceX/Seattle (US) in LEO that was launched on Sat, 16 Sep 2023 UTC via an FALCON 9 launch vehicle from the Air Force Eastern Test Range (AFETR). Payload-class satellites include a variety of spacecraft equipped with specific instruments for various scientific and technological missions. These include communications satellites like Starlink; space stations such as the ISS; scientific satellites like the Hubble; Earth observation satellites from companies like Planet Labs, Umbra, and HawkEye 360; GPS; miniature CubeSats for education and research; and military/defense satellites.

Not visible in the next 10 days
Identifier
57881, 2023-144T
Orbit
Decayed
Country
Flag of USUS
Related business
Manufacturer
SpaceX/Seattle
Mission
Decayed Commercial Communications
Bus & Motor
STARLINK V2M, Unknown motor
Mass
730 kg wet, ~700 kg dry
Launch date (UTC)
2023-09-16 (3 years ago)
Launch vehicle
FALCON 9
Launch site
Air Force Eastern Test Range (AFETR)
Object type
Payload
Rocket body
Debris
Shape & HBR
Box + 2 Pan, 17.7 m
Radar Cross Section
33.884 m², Large (>1 m²)

Expand to show TLE details & history
Last TLE update: 1 year ago

TLE from 1 year ago
0 STARLINK-30406
1 57881U 23144T   25008.42462289  .29889907  90576-5  47360-2 0  9991
2 57881  42.9760  21.7564 0013616 115.9333  26.1209 16.32468481 74291
Epoch: 2025-01-08T10:11Z
TLE epoch observation values (Epoch: 2025-01-08T10:11:27.417Z)
Latitude
24.83418°
Longitude
-88.9188°
Altitude
177.694 km
Speed
7.809 km/s
True Right ascension
11h 28m 39s
True Declination
24° 41' 30"
Sunlit
Object was in full shadow at epoch
Visualization orbit readout
Latitude
Unknown
Longitude
Unknown
Altitude
Unknown
Speed
Unknown
Apparent Right ascension
Unknown
Apparent Declination
Unknown
Sunlit
N/A
Visualization observer readout
Local Sidereal Time
22:00:28
Azimuth
Unknown
Elevation
Unknown
Doppler factor
Unknown
Orbital elements
Apogee altitude
196.892 km
Perigee altitude
179.011 km
Semi-major axis
6,566.088 km
Eccentricity
0.00136
Inclination
42.976°
RAAN
21.7564°
Arg. of periapsis
115.9333°
True anomaly
26.1897°
Mean anomaly
26.1209°
Eccentric anomaly
26.15529°
Mean motion
4.07928 °/min
Orbital period
88.25 mins
BSTAR
0.004736
Loading maneuver chart data...
Computing Atmospheric mass density...
Loading historical data...
Loading historical data...
Loading historical data...
Loading historical data...
Loading historical data...
Loading historical data...
Loading historical data...

Documentation

Showing up to 5 results
|